[[[{"header":{"parameterUnit":"kt","parameterCategory":2,"dx":1,"dy":1,"la1":30.253999710083008,"la2":30.299108505249023,"lo1":-89.0895004272461,"lo2":-89.04439544677734,"nx":28,"ny":28,"refTime":"2022-09-20T09:00:00:Z","depth":0,"parameterNumber":1,"parameterNumberName":"U-component_of_WINDS"},"data":[-2.5761,-2.5825,-2.5814,-2.5882,-2.5883,-2.5928,-2.594,-2.5955,-2.5963,-2.6014,-2.6042,-2.6037,-2.6041,-2.607,-2.61,-2.6096,-2.6111,-2.6142,-2.6133,-2.6005,-2.5987,-2.5969,-2.5954,-2.6144,-2.6144,-2.6269,-2.627,-2.6271,-2.5669,-2.5671,-2.5703,-2.5727,-2.5755,-2.5718,-2.5734,-2.576,-2.58,-2.5811,-2.5837,-2.5881,-2.5914,-2.5907,-2.5937,-2.5967,-2.5952,-2.5976,-2.5976,-2.5977,-2.5839,-2.5823,-2.5988,-2.5988,-2.5988,-2.5988,-2.5988,-2.5988,-2.5498,-2.5536,-2.5545,-2.5579,-2.5588,-2.5604,-2.5638,-2.5631,-2.5662,-2.5693,-2.5672,-2.5718,-2.5726,-2.5756,-2.5763,-2.5798,-2.577,-2.5793,-2.5799,-2.5806,-2.5816,-2.5642,-2.5802,-2.5801,-2.5801,-2.5801,-2.58,0,-2.537,-2.5359,-2.5389,-2.5416,-2.544,-2.546,-2.5475,-2.5496,-2.5466,-2.5493,-2.5531,-2.5551,-2.559,-2.5625,-2.565,-2.5652,-2.5619,-2.5613,-2.5629,-2.5642,-2.5651,-2.565,-2.5427,-2.5609,-2.5607,-2.5606,-2.5605,-2.5605,-2.52,-2.5246,-2.5248,-2.527,-2.5276,-2.5313,-2.5332,-2.5302,-2.5324,-2.5339,-2.5374,-2.5408,-2.5434,-2.5496,-2.5487,-2.5516,-2.5501,-2.5572,-2.5505,-2.5515,-2.5505,-2.5504,-2.551,-2.5587,-2.5589,-2.5591,-2.5592,0,-2.5106,-2.5087,-2.5154,-2.5151,-2.5152,-2.5201,-2.5199,-2.5235,-2.5223,-2.5272,-2.5282,-2.5265,-2.5302,-2.5281,-2.532,-2.5308,-2.539,-2.5372,-2.5387,-2.5384,-2.5447,-2.5443,-2.5652,-2.5679,-2.5479,-2.5481,-2.5482,0,-2.4955,-2.5015,-2.4984,-2.5023,-2.5089,-2.5058,-2.5124,-2.512,-2.5127,-2.5165,-2.5122,-2.5159,-2.5126,-2.516,-2.5142,-2.5205,-2.5211,-2.5207,-2.5202,-2.5213,-2.5214,-2.5227,-2.5219,-2.5186,-2.5185,-2.5184,-2.5183,0,-2.4813,-2.4865,-2.4928,-2.4937,-2.4941,-2.4971,-2.4974,-2.498,-2.5,-2.5021,-2.5033,-2.5059,-2.5075,-2.5096,-2.5074,-2.503,-2.5149,-2.5084,-2.5145,-2.5146,-2.5175,-2.5175,-2.5362,-2.5182,-2.5181,-2.5181,-2.5181,0,-2.4689,-2.4711,-2.4804,-2.4807,-2.4822,-2.4863,-2.4888,-2.4918,-2.4928,-2.492,-2.4936,-2.4906,-2.4957,-2.4894,-2.4964,-2.4913,-2.4931,-2.4931,-2.4934,-2.4941,-2.4872,-2.4984,-2.5162,-2.5182,-2.4943,-2.4941,-2.4939,0,-2.4532,-2.4621,-2.4595,-2.4684,-2.4723,-2.4673,-2.4718,-2.4728,-2.4721,-2.4752,-2.4744,-2.478,-2.4728,-2.4737,-2.4774,-2.4768,-2.4833,-2.4757,-2.4806,-2.4808,-2.4808,-2.4971,-2.5005,-2.5125,-2.4913,-2.4916,-2.4918,0,-2.4408,-2.4412,-2.443,-2.4439,-2.4447,-2.4479,-2.453,-2.4558,-2.4581,-2.4596,-2.464,-2.4688,-2.4652,-2.4667,-2.4645,-2.4685,-2.4788,-2.4641,-2.4641,-2.4671,-2.4897,-2.4929,-2.495,-2.4764,-2.4767,-2.477,-2.4897,0,-2.4231,-2.4272,-2.4318,-2.434,-2.436,-2.4414,-2.4393,-2.4417,-2.4394,-2.4385,-2.4447,-2.445,-2.4479,-2.4495,-2.4473,-2.457,-2.4552,-2.4512,-2.4452,-2.4558,-2.46,-2.4617,-2.4392,-2.439,-2.4388,-2.4387,0,0,-2.4087,-2.4146,-2.4116,-2.4164,-2.4181,-2.4128,-2.4188,-2.4197,-2.4218,-2.423,-2.4195,-2.4266,-2.427,-2.4347,-2.4378,-2.4389,-2.4406,-2.4369,-2.4507,-2.4521,-2.4533,-2.4578,-2.4596,-2.4384,-2.4383,-2.4383,-2.4382,0,-2.4019,-2.4022,-2.4082,-2.409,-2.4101,-2.4088,-2.4102,-2.4104,-2.4101,-2.4161,-2.4118,-2.4152,-2.4209,-2.4219,-2.4232,-2.4359,-2.4325,-2.4369,-2.4445,-2.4491,-2.4507,-2.4521,-2.4568,-2.4585,-2.4378,-2.4379,-2.4379,0,-2.3896,-2.3897,-2.3922,-2.3955,-2.3962,-2.4002,-2.3933,-2.3977,-2.4007,-2.3948,-2.4009,-2.4007,-2.4019,-2.4094,-2.4127,-2.4097,-2.4254,-2.4199,-2.4209,-2.4213,-2.4257,-2.4276,-2.4292,-2.4072,-2.4071,-2.407,0,0,-2.3839,-2.3877,-2.3869,-2.3939,-2.3946,-2.3928,-2.3947,-2.3926,-2.3937,-2.3942,-2.394,-2.3952,-2.3984,-2.4007,-2.4036,-2.4121,-2.4122,-2.4163,-2.4177,-2.4189,-2.42,-2.4246,-2.4265,-2.4067,-2.4067,-2.4067,0,0,-2.3813,-2.3807,-2.3781,-2.3859,-2.3871,-2.3868,-2.3912,-2.3881,-2.3905,-2.3896,-2.3864,-2.3866,-2.3935,-2.3936,-2.3889,-2.4015,-2.3955,-2.3965,-2.4012,-2.403,-2.4044,-2.4044,-2.382,0,0,0,0,0,-2.3732,-2.3807,-2.3784,-2.3794,-2.3835,-2.388,-2.3886,-2.386,-2.3819,-2.3854,-2.3847,-2.3809,-2.3904,-2.3862,-2.3872,-2.3925,-2.402,-2.4028,-2.4036,-2.4116,-2.4135,-2.4151,0,0,0,0,0,0,-2.3735,-2.3747,-2.3782,-2.3783,-2.3792,-2.3877,-2.3802,-2.3797,-2.3814,-2.3806,-2.3812,-2.3809,-2.3789,-2.3855,-2.3864,-2.3916,-2.3816,-2.4023,-2.403,-2.4036,-2.4123,-2.4138,-2.4152,0,0,0,0,0,-2.3738,-2.3748,-2.382,-2.3782,-2.379,-2.3774,-2.3799,-2.3794,-2.3807,-2.3797,-2.3793,-2.3787,-2.3791,-2.3797,-2.386,-2.3912,-2.3809,-2.3813,-2.4027,-2.4033,-2.4038,-2.413,0,0,0,0,0,0,-2.374,-2.3744,-2.3821,-2.3822,-2.3751,-2.3768,-2.377,-2.3792,-2.3796,-2.3793,-2.377,-2.3763,-2.3793,-2.3798,-2.3803,-2.3912,-2.3804,-2.3808,-2.381,-2.4032,-2.4036,-2.404,0,0,0,0,0,0,-2.3739,-2.3746,-2.3822,-2.3785,-2.3782,-2.3764,-2.3765,-2.3815,-2.3797,-2.3768,-2.3763,-2.3767,-2.3786,-2.3799,-2.3802,-2.3881,-2.3799,-2.3803,-2.3806,-2.3807,-2.4035,-2.4039,0,0,0,0,0,0,-2.3741,-2.3747,-2.3784,-2.3782,-2.3779,-2.3793,-2.3807,-2.385,-2.3765,-2.3769,-2.3757,-2.3753,-2.3788,-2.3791,-2.3802,-2.3879,-2.388,-2.38,-2.3802,-2.3804,-2.3805,0,0,0,0,0,0,0,-2.3743,-2.3709,-2.3812,-2.378,-2.3777,-2.3835,-2.3836,-2.3836,-2.3764,-2.3761,-2.3758,-2.3754,-2.3779,-2.3783,-2.3787,-2.3878,0,0,-2.3799,-2.3801,0,0,0,0,0,0,0,0,-2.3706,-2.3708,-2.3813,-2.3813,-2.3813,-2.3836,-2.3836,-2.3836,-2.3764,-2.3761,-2.3758,-2.3756,-2.378,-2.3783,-2.3786,0,0,0,0,0,0,0,0,0,0,0,0,0,0,0,-2.3813,-2.3813,0,-2.3836,-2.3836,-2.3836,-2.3763,-2.3761,-2.3759,-2.3757,-2.3781,-2.3783,-2.3786,0,0,0,0,0,0,0,0,0,0,0,0,0,0,0,0,0,0,0,0,0,0,0,0,0,0,0,0,0,0,0,0,0,0,0,0,0,0,0,0,0,0,0,0,0,0,0,0,0,0,0,0,0,0,0,0,0,0,0,0,0,0,0,0,0,0,0,0,0]}],[{"header":{"parameterUnit":"kt","parameterCategory":2,"dx":1,"dy":1,"la1":30.253999710083008,"la2":30.299108505249023,"lo1":-89.0895004272461,"lo2":-89.04439544677734,"nx":28,"ny":28,"refTime":"2022-09-20T09:00:00:Z","depth":0,"parameterNumber":2,"parameterNumberName":"V-component_of_WINDS"},"data":[-6.2529,-6.2597,-6.2585,-6.2657,-6.2658,-6.2705,-6.2717,-6.2732,-6.274,-6.2793,-6.2821,-6.2814,-6.2816,-6.2845,-6.2874,-6.2869,-6.2883,-6.2917,-6.2907,-6.2768,-6.2748,-6.2729,-6.2713,-6.292,-6.292,-6.3053,-6.3054,-6.3055,-6.2431,-6.2433,-6.2467,-6.2492,-6.2521,-6.2482,-6.2498,-6.2524,-6.2566,-6.2576,-6.2602,-6.2647,-6.268,-6.267,-6.2699,-6.2729,-6.2712,-6.2738,-6.2737,-6.2738,-6.2588,-6.2572,-6.2752,-6.2752,-6.2752,-6.2752,-6.2752,-6.2752,-6.225,-6.229,-6.2299,-6.2335,-6.2344,-6.236,-6.2396,-6.2387,-6.2419,-6.2449,-6.2426,-6.2472,-6.2478,-6.2506,-6.2511,-6.2546,-6.2514,-6.2538,-6.2545,-6.2552,-6.2563,-6.2376,-6.255,-6.2549,-6.2548,-6.2548,-6.2548,0,-6.2114,-6.2101,-6.2132,-6.216,-6.2186,-6.2205,-6.2221,-6.2243,-6.2208,-6.2236,-6.2274,-6.2294,-6.2332,-6.2366,-6.2389,-6.2388,-6.2349,-6.2343,-6.236,-6.2374,-6.2384,-6.2381,-6.2141,-6.2338,-6.2336,-6.2335,-6.2334,-6.2333,-6.1932,-6.198,-6.1981,-6.2005,-6.201,-6.2048,-6.2067,-6.2033,-6.2055,-6.2068,-6.2105,-6.2138,-6.2163,-6.2225,-6.2211,-6.2239,-6.222,-6.2298,-6.2224,-6.2235,-6.2224,-6.2223,-6.2228,-6.2313,-6.2316,-6.2318,-6.232,0,-6.1831,-6.181,-6.1879,-6.1875,-6.1875,-6.1927,-6.1922,-6.196,-6.1945,-6.1996,-6.2005,-6.1983,-6.202,-6.1993,-6.2029,-6.2014,-6.2099,-6.2079,-6.2098,-6.2093,-6.2161,-6.2156,-6.2383,-6.2411,-6.2194,-6.2196,-6.2198,0,-6.1668,-6.1732,-6.1696,-6.1738,-6.1807,-6.1771,-6.184,-6.1835,-6.1839,-6.1878,-6.1829,-6.1866,-6.1826,-6.1859,-6.1837,-6.1901,-6.1907,-6.19,-6.1894,-6.1906,-6.1907,-6.1918,-6.1909,-6.1875,-6.1873,-6.1872,-6.1872,0,-6.1515,-6.1568,-6.1635,-6.1644,-6.1644,-6.1676,-6.1677,-6.1681,-6.17,-6.172,-6.1732,-6.1756,-6.1771,-6.1791,-6.1762,-6.1714,-6.1839,-6.1766,-6.1832,-6.1833,-6.1862,-6.1861,-6.2067,-6.187,-6.187,-6.1869,-6.1869,0,-6.138,-6.1402,-6.1501,-6.1501,-6.1516,-6.1559,-6.1582,-6.1613,-6.162,-6.1609,-6.1624,-6.1588,-6.164,-6.157,-6.1642,-6.1587,-6.1604,-6.1601,-6.1605,-6.161,-6.1533,-6.1655,-6.1852,-6.1873,-6.1612,-6.161,-6.1608,0,-6.1211,-6.1305,-6.1275,-6.1369,-6.1409,-6.1352,-6.1399,-6.1406,-6.1395,-6.1427,-6.1413,-6.1449,-6.1391,-6.1398,-6.1437,-6.1425,-6.1496,-6.1414,-6.1461,-6.1463,-6.1463,-6.1644,-6.1681,-6.1812,-6.158,-6.1583,-6.1585,0,-6.1077,-6.1077,-6.1096,-6.1105,-6.1109,-6.1141,-6.1194,-6.1221,-6.1244,-6.1257,-6.1301,-6.1348,-6.1307,-6.1319,-6.1292,-6.1334,-6.1447,-6.1284,-6.1283,-6.1316,-6.1563,-6.1599,-6.1621,-6.1419,-6.1422,-6.1425,-6.1563,0,-6.0883,-6.0926,-6.0976,-6.0995,-6.1015,-6.1071,-6.1043,-6.1068,-6.104,-6.1027,-6.109,-6.1087,-6.1114,-6.113,-6.1103,-6.1207,-6.1185,-6.114,-6.1071,-6.1189,-6.1234,-6.1252,-6.1007,-6.1004,-6.1003,-6.1001,0,0,-6.0728,-6.0789,-6.0753,-6.0803,-6.0818,-6.0758,-6.0821,-6.0828,-6.0843,-6.0855,-6.0816,-6.0883,-6.0882,-6.0962,-6.0996,-6.1006,-6.1022,-6.0981,-6.1133,-6.1147,-6.1161,-6.121,-6.1229,-6.0998,-6.0997,-6.0996,-6.0996,0,-6.0652,-6.0654,-6.0716,-6.0722,-6.073,-6.0712,-6.0728,-6.0724,-6.0718,-6.0779,-6.0727,-6.0761,-6.0814,-6.0821,-6.0832,-6.0971,-6.093,-6.0981,-6.1067,-6.1115,-6.1132,-6.1147,-6.1199,-6.1217,-6.0991,-6.0991,-6.0992,0,-6.0517,-6.0514,-6.0541,-6.0572,-6.0575,-6.0616,-6.0537,-6.0583,-6.0613,-6.0542,-6.0603,-6.0598,-6.0603,-6.0681,-6.0715,-6.068,-6.0848,-6.0789,-6.08,-6.0803,-6.0848,-6.0869,-6.0888,-6.0644,-6.0643,-6.0642,0,0,-6.0454,-6.0493,-6.0479,-6.0553,-6.0559,-6.0534,-6.0552,-6.0526,-6.0533,-6.0536,-6.0527,-6.0535,-6.0566,-6.0587,-6.0614,-6.0703,-6.0702,-6.0747,-6.0764,-6.0777,-6.0788,-6.0837,-6.0857,-6.0638,-6.0638,-6.0637,0,0,-6.0424,-6.0411,-6.0382,-6.0464,-6.0473,-6.0463,-6.0509,-6.0472,-6.0494,-6.0484,-6.0441,-6.0441,-6.0513,-6.0509,-6.0458,-6.0589,-6.0521,-6.0532,-6.0589,-6.0609,-6.0625,-6.0625,-6.0376,0,0,0,0,0,-6.0332,-6.0413,-6.0387,-6.0396,-6.0433,-6.0478,-6.0482,-6.0449,-6.0402,-6.044,-6.0427,-6.0381,-6.0473,-6.0427,-6.0436,-6.0494,-6.0585,-6.0594,-6.0603,-6.0697,-6.0719,-6.0737,0,0,0,0,0,0,-6.0335,-6.0347,-6.0384,-6.0378,-6.0386,-6.0474,-6.0388,-6.0381,-6.0397,-6.0388,-6.0385,-6.0381,-6.0353,-6.0419,-6.0429,-6.0484,-6.0373,-6.0589,-6.0597,-6.0604,-6.0705,-6.0722,-6.0737,0,0,0,0,0,-6.0337,-6.0347,-6.0415,-6.0377,-6.0384,-6.0359,-6.0385,-6.0378,-6.039,-6.037,-6.0365,-6.0364,-6.0355,-6.036,-6.0425,-6.0481,-6.0366,-6.037,-6.0594,-6.06,-6.0606,-6.0713,0,0,0,0,0,0,-6.0339,-6.0341,-6.0415,-6.0416,-6.0344,-6.0354,-6.0354,-6.0376,-6.037,-6.0366,-6.0346,-6.0339,-6.0358,-6.0361,-6.0366,-6.0482,-6.0361,-6.0364,-6.0367,-6.0599,-6.0604,-6.0608,0,0,0,0,0,0,-6.0336,-6.0342,-6.0416,-6.0375,-6.0371,-6.0349,-6.0349,-6.0398,-6.0371,-6.0347,-6.034,-6.0343,-6.0351,-6.0363,-6.0366,-6.0443,-6.0357,-6.036,-6.0362,-6.0364,-6.0603,-6.0606,0,0,0,0,0,0,-6.0338,-6.0343,-6.0375,-6.0372,-6.0368,-6.0375,-6.0391,-6.043,-6.0338,-6.0348,-6.0329,-6.0324,-6.0354,-6.0356,-6.0366,-6.0443,-6.0443,-6.0357,-6.0359,-6.0361,-6.0362,0,0,0,0,0,0,0,-6.0339,-6.031,-6.0411,-6.0369,-6.0365,-6.0424,-6.0424,-6.0424,-6.0337,-6.0333,-6.033,-6.0326,-6.0337,-6.0341,-6.0345,-6.0442,0,0,-6.0356,-6.0358,0,0,0,0,0,0,0,0,-6.0307,-6.031,-6.0411,-6.0411,-6.0411,-6.0424,-6.0424,-6.0424,-6.0337,-6.0334,-6.0331,-6.0328,-6.0338,-6.0341,-6.0344,0,0,0,0,0,0,0,0,0,0,0,0,0,0,0,-6.0411,-6.0411,0,-6.0424,-6.0424,-6.0424,-6.0336,-6.0334,-6.0331,-6.0329,-6.0339,-6.0341,-6.0344,0,0,0,0,0,0,0,0,0,0,0,0,0,0,0,0,0,0,0,0,0,0,0,0,0,0,0,0,0,0,0,0,0,0,0,0,0,0,0,0,0,0,0,0,0,0,0,0,0,0,0,0,0,0,0,0,0,0,0,0,0,0,0,0,0,0,0,0,0]}]]]